Location: ??????
(56.0120°N, 39.1740°E)
Time: 21:16:11
(UTC+00:00)

Envisat - Pass Details

Date: 14 April 2026
Orbit: 761 x 762 km, 98.4° (Epoch: 11 May)

Event Time Altitude Azimuth Distance (km) Brightness Sun altitude
Rises 23:36:48 0° 19° (NNE) 3,240 7.7 -18.7°
Reaches altitude 10° 23:39:15 10° 27° (NNE) 2,309 6.7 -18.5°
Maximum altitude 23:44:03 41° 97° (E) 1,093 4.0 -18.1°
Enters shadow 23:48:00 15° 164° (SSE) 1,994 4.8 -17.8°
